N101TD EDDF-LEIB

Flight info

Callsign N101TD
Flight time 1h 49m
Altitude 37000
Route ANEKI2L/18 ANEKI Y163 HERBI Y164 OLBEN DCT MOBLO DCT GIGUS DCT DIVKO UN852 VATIR N852 VERSO L129 POS
Aircraft B737/M-VGDW/C

Departure

Time 2026-04-14 07:47
Airport Frankfurt Main Airport (EDDF)

Arrival

Time 2026-04-14 09:36
Airport Ibiza Airport (LEIB)
Time Latitude Longitude Altitude Speed Heading
2026-04-14 07:19 50.02320 8.53398 329 ft 0 kts 339°
2026-04-14 07:40 50.02307 8.53405 330 ft 2 kts 340°
2026-04-14 07:41 50.02292 8.53414 329 ft 2 kts 338°
2026-04-14 07:41 50.02279 8.53428 331 ft 1 kts 274°
2026-04-14 07:41 50.02279 8.53432 331 ft 0 kts 268°
2026-04-14 07:41 50.02275 8.53412 329 ft 2 kts 252°
2026-04-14 07:42 50.02270 8.53389 331 ft 2 kts 252°
2026-04-14 07:42 50.02267 8.53379 329 ft 0 kts 251°
2026-04-14 07:45 50.02261 8.53354 331 ft 7 kts 249°
2026-04-14 07:45 50.02236 8.53251 331 ft 17 kts 249°
2026-04-14 07:45 50.02179 8.53088 333 ft 18 kts 219°
2026-04-14 07:45 50.02145 8.52916 333 ft 17 kts 263°
2026-04-14 07:46 50.02220 8.52828 333 ft 16 kts
2026-04-14 07:46 50.02321 8.52790 334 ft 16 kts 296°
2026-04-14 07:46 50.02287 8.52637 331 ft 15 kts 233°
2026-04-14 07:46 50.02243 8.52606 333 ft 0 kts 178°
2026-04-14 07:47 50.02212 8.52607 330 ft 32 kts 179°
2026-04-14 07:47 50.01602 8.52610 333 ft 140 kts 180°
2026-04-14 07:47 50.00350 8.52623 625 ft 208 kts 180°
2026-04-14 07:47 49.98734 8.52678 1016 ft 259 kts 178°
2026-04-14 07:48 49.96884 8.52808 2081 ft 273 kts 177°
2026-04-14 07:48 49.94959 8.52952 3449 ft 274 kts 176°
2026-04-14 07:48 49.93111 8.53089 5202 ft 258 kts 177°
2026-04-14 07:48 49.91363 8.53217 6739 ft 245 kts 178°
2026-04-14 07:49 49.89667 8.53340 7931 ft 243 kts 179°
2026-04-14 07:49 49.87967 8.53461 9013 ft 245 kts 179°
2026-04-14 07:49 49.86249 8.53582 10031 ft 248 kts 179°
2026-04-14 07:49 49.84516 8.53703 10972 ft 251 kts 179°
2026-04-14 07:50 49.82783 8.53825 11889 ft 254 kts 179°
2026-04-14 07:50 49.80999 8.53949 12852 ft 257 kts 180°
2026-04-14 07:50 49.79206 8.54074 13805 ft 260 kts 180°
2026-04-14 07:50 49.77998 8.54150 14380 ft 262 kts 182°
2026-04-14 07:51 49.76111 8.54031 14832 ft 283 kts 186°
2026-04-14 07:51 49.73329 8.53632 15121 ft 321 kts 187°
2026-04-14 07:51 49.71781 8.53395 15264 ft 340 kts 187°
2026-04-14 07:51 49.69335 8.53027 15458 ft 366 kts 187°
2026-04-14 07:52 49.66750 8.52654 15700 ft 387 kts 186°
2026-04-14 07:52 49.64028 8.52279 16315 ft 396 kts 186°
2026-04-14 07:52 49.61268 8.51909 17125 ft 399 kts 186°
2026-04-14 07:52 49.58498 8.51544 17948 ft 402 kts 186°
2026-04-14 07:53 49.55691 8.51176 18674 ft 406 kts 186°
2026-04-14 07:53 49.52861 8.50805 19312 ft 410 kts 186°
2026-04-14 07:53 49.50000 8.50430 19959 ft 414 kts 186°
2026-04-14 07:53 49.47118 8.50053 20600 ft 418 kts 186°
2026-04-14 07:54 49.44238 8.49676 21220 ft 422 kts 186°
2026-04-14 07:54 49.41258 8.49286 21814 ft 426 kts 186°
2026-04-14 07:54 49.38330 8.48904 22388 ft 430 kts 186°
2026-04-14 07:54 49.35326 8.48512 22976 ft 434 kts 186°
2026-04-14 07:55 49.32301 8.48117 23548 ft 437 kts 186°
2026-04-14 07:55 49.29247 8.47720 24030 ft 441 kts 186°
2026-04-14 07:55 49.26177 8.47322 24504 ft 444 kts 186°
2026-04-14 07:55 49.23086 8.46920 24996 ft 446 kts 186°
2026-04-14 07:56 49.20019 8.46521 25439 ft 449 kts 186°
2026-04-14 07:56 49.16884 8.46113 25873 ft 453 kts 186°
2026-04-14 07:56 49.13722 8.45703 26321 ft 456 kts 186°
2026-04-14 07:56 49.10546 8.45291 26763 ft 458 kts 186°
2026-04-14 07:57 49.07366 8.44878 27178 ft 460 kts 186°
2026-04-14 07:57 49.04230 8.44200 27544 ft 461 kts 193°
2026-04-14 07:57 49.01083 8.43116 27940 ft 463 kts 195°
2026-04-14 07:57 48.97960 8.41954 28420 ft 461 kts 195°
2026-04-14 07:58 48.94845 8.40796 28994 ft 459 kts 195°
2026-04-14 07:58 48.91747 8.39674 29572 ft 456 kts 194°
2026-04-14 07:58 48.88655 8.38584 30110 ft 455 kts 194°
2026-04-14 07:58 48.85569 8.37513 30528 ft 454 kts 194°
2026-04-14 07:59 48.82480 8.36447 30862 ft 455 kts 194°
2026-04-14 07:59 48.79419 8.35391 31184 ft 456 kts 194°
2026-04-14 07:59 48.76322 8.34301 31535 ft 456 kts 195°
2026-04-14 07:59 48.73237 8.33177 31880 ft 456 kts 195°
2026-04-14 08:00 48.70142 8.32036 32205 ft 457 kts 195°
2026-04-14 08:00 48.67046 8.30896 32545 ft 457 kts 195°
2026-04-14 08:00 48.63955 8.29762 32862 ft 457 kts 195°
2026-04-14 08:00 48.60859 8.28632 33172 ft 458 kts 195°
2026-04-14 08:01 48.57793 8.27518 33493 ft 458 kts 195°
2026-04-14 08:01 48.54685 8.26390 33801 ft 458 kts 195°
2026-04-14 08:01 48.51585 8.25267 34109 ft 458 kts 195°
2026-04-14 08:01 48.48475 8.24142 34356 ft 459 kts 195°
2026-04-14 08:02 48.45364 8.23009 34575 ft 460 kts 195°
2026-04-14 08:02 48.42253 8.21871 34797 ft 461 kts 195°
2026-04-14 08:02 48.39132 8.20730 35025 ft 461 kts 195°
2026-04-14 08:02 48.36048 8.19603 35245 ft 462 kts 195°
2026-04-14 08:03 48.32915 8.18462 35436 ft 463 kts 195°
2026-04-14 08:03 48.29780 8.17321 35644 ft 464 kts 195°
2026-04-14 08:03 48.26638 8.16180 35876 ft 464 kts 195°
2026-04-14 08:03 48.23510 8.14941 36077 ft 464 kts 199°
2026-04-14 08:04 48.20459 8.13331 36276 ft 465 kts 201°
2026-04-14 08:04 48.17437 8.11594 36487 ft 465 kts 202°
2026-04-14 08:04 48.14420 8.09816 36684 ft 466 kts 202°
2026-04-14 08:04 48.11390 8.08033 36875 ft 467 kts 202°
2026-04-14 08:05 48.08393 8.06292 37066 ft 468 kts 202°
2026-04-14 08:05 48.02275 8.02801 37145 ft 471 kts 202°
2026-04-14 08:06 47.96160 7.99361 37141 ft 467 kts 201°
2026-04-14 08:06 47.90075 7.95953 37147 ft 466 kts 201°
2026-04-14 08:07 47.84042 7.92579 37142 ft 465 kts 201°
2026-04-14 08:07 47.77970 7.89190 37151 ft 465 kts 201°
2026-04-14 08:08 47.71893 7.85806 37147 ft 466 kts 201°
2026-04-14 08:08 47.65796 7.82419 37155 ft 467 kts 201°
2026-04-14 08:09 47.59710 7.79047 37145 ft 468 kts 201°
2026-04-14 08:09 47.53598 7.75669 37160 ft 469 kts 201°
2026-04-14 08:10 47.47473 7.72292 37150 ft 469 kts 201°
2026-04-14 08:10 47.41390 7.68946 37147 ft 469 kts 201°
2026-04-14 08:11 47.35273 7.65589 37147 ft 469 kts 201°
2026-04-14 08:11 47.29142 7.62218 37142 ft 469 kts 202°
2026-04-14 08:12 47.23105 7.58523 37124 ft 470 kts 204°
2026-04-14 08:12 47.17111 7.54701 37136 ft 469 kts 204°
2026-04-14 08:13 47.11097 7.50912 37124 ft 470 kts 204°
2026-04-14 08:13 47.05111 7.47191 37128 ft 470 kts 204°
2026-04-14 08:14 46.99076 7.43463 37132 ft 470 kts 204°
2026-04-14 08:14 46.93042 7.39746 37129 ft 470 kts 204°
2026-04-14 08:15 46.87007 7.36036 37131 ft 470 kts 204°
2026-04-14 08:15 46.80991 7.32345 37134 ft 472 kts 204°
2026-04-14 08:16 46.74915 7.28627 37125 ft 474 kts 204°
2026-04-14 08:16 46.68828 7.24911 37117 ft 474 kts 204°
2026-04-14 08:17 46.62732 7.21200 37106 ft 474 kts 204°
2026-04-14 08:17 46.56639 7.17499 37101 ft 474 kts 204°
2026-04-14 08:18 46.50584 7.13829 37089 ft 474 kts 204°
2026-04-14 08:18 46.44490 7.10145 37093 ft 473 kts 204°
2026-04-14 08:19 46.38404 7.06475 37103 ft 473 kts 203°
2026-04-14 08:19 46.32303 7.02805 37104 ft 473 kts 204°
2026-04-14 08:20 46.26257 6.99176 37094 ft 473 kts 204°
2026-04-14 08:20 46.20158 6.95525 37095 ft 473 kts 204°
2026-04-14 08:21 46.14056 6.91880 37066 ft 473 kts 203°
2026-04-14 08:21 46.08007 6.88276 37069 ft 473 kts 203°
2026-04-14 08:22 46.01920 6.84658 37046 ft 474 kts 203°
2026-04-14 08:22 45.95823 6.81041 37036 ft 474 kts 203°
2026-04-14 08:23 45.89714 6.77427 37051 ft 474 kts 203°
2026-04-14 08:23 45.83613 6.73824 37054 ft 474 kts 203°
2026-04-14 08:24 45.77570 6.70141 37035 ft 474 kts 206°
2026-04-14 08:24 45.71615 6.66076 37016 ft 474 kts 207°
2026-04-14 08:25 45.65658 6.61985 37035 ft 476 kts 206°
2026-04-14 08:25 45.59661 6.57943 37035 ft 477 kts 206°
2026-04-14 08:26 45.53644 6.53925 37063 ft 477 kts 206°
2026-04-14 08:26 45.47650 6.49931 37061 ft 478 kts 206°
2026-04-14 08:27 45.41615 6.45914 37055 ft 478 kts 206°
2026-04-14 08:27 45.35606 6.41814 37050 ft 478 kts 208°
2026-04-14 08:28 45.29721 6.37406 37042 ft 478 kts 209°
2026-04-14 08:28 45.23894 6.32988 37036 ft 478 kts 209°
2026-04-14 08:29 45.17998 6.28578 37031 ft 478 kts 208°
2026-04-14 08:29 45.12097 6.24209 37024 ft 477 kts 208°
2026-04-14 08:30 45.06237 6.19891 37019 ft 477 kts 208°
2026-04-14 08:30 45.00338 6.15553 37013 ft 477 kts 208°
2026-04-14 08:31 44.94440 6.11224 37002 ft 477 kts 208°
2026-04-14 08:31 44.85607 6.04760 37000 ft 478 kts 208°
2026-04-14 08:32 44.79678 6.00432 36987 ft 479 kts 208°
2026-04-14 08:32 44.73740 5.96109 36989 ft 480 kts 208°
2026-04-14 08:33 44.67847 5.91828 36994 ft 480 kts 208°
2026-04-14 08:33 44.61894 5.87514 36994 ft 481 kts 208°
2026-04-14 08:34 44.55935 5.83205 36983 ft 481 kts 208°
2026-04-14 08:34 44.49985 5.78913 36975 ft 481 kts 208°
2026-04-14 08:35 44.44071 5.74657 36969 ft 481 kts 208°
2026-04-14 08:35 44.38121 5.70384 36943 ft 480 kts 208°
2026-04-14 08:36 44.33154 5.66825 36958 ft 482 kts 208°
2026-04-14 08:36 44.27171 5.62547 36947 ft 483 kts 208°
2026-04-14 08:37 44.21213 5.58296 36941 ft 484 kts 208°
2026-04-14 08:37 44.15203 5.54019 36929 ft 485 kts 208°
2026-04-14 08:38 44.09181 5.49742 36924 ft 485 kts 208°
2026-04-14 08:38 44.03202 5.45507 36933 ft 484 kts 208°
2026-04-14 08:39 43.97187 5.41255 36910 ft 483 kts 208°
2026-04-14 08:39 43.91189 5.37025 36930 ft 483 kts 208°
2026-04-14 08:40 43.85234 5.32834 36920 ft 483 kts 208°
2026-04-14 08:40 43.79227 5.28617 36933 ft 484 kts 208°
2026-04-14 08:41 43.73206 5.24399 36941 ft 485 kts 208°
2026-04-14 08:41 43.67163 5.20175 36944 ft 487 kts 208°
2026-04-14 08:42 43.61098 5.15946 36937 ft 487 kts 208°
2026-04-14 08:42 43.55078 5.11758 36940 ft 488 kts 208°
2026-04-14 08:43 43.49013 5.07548 36967 ft 488 kts 208°
2026-04-14 08:43 43.42930 5.03334 36970 ft 488 kts 208°
2026-04-14 08:44 43.36907 4.99171 36959 ft 488 kts 208°
2026-04-14 08:44 43.30832 4.94983 36950 ft 488 kts 209°
2026-04-14 08:45 43.24714 4.90774 36970 ft 493 kts 208°
2026-04-14 08:45 43.18532 4.86531 36980 ft 497 kts 208°
2026-04-14 08:46 43.12397 4.82327 36970 ft 496 kts 208°
2026-04-14 08:46 43.06217 4.78101 36982 ft 495 kts 208°
2026-04-14 08:47 43.00118 4.73686 37002 ft 494 kts 211°
2026-04-14 08:47 42.94125 4.69061 36996 ft 495 kts 212°
2026-04-14 08:48 42.88153 4.64473 36994 ft 495 kts 211°
2026-04-14 08:48 42.82129 4.59908 37001 ft 495 kts 210°
2026-04-14 08:49 42.76082 4.55359 37005 ft 496 kts 210°
2026-04-14 08:49 42.70056 4.50836 37008 ft 498 kts 211°
2026-04-14 08:50 42.63983 4.46281 37005 ft 499 kts 210°
2026-04-14 08:50 42.57892 4.41720 37023 ft 500 kts 211°
2026-04-14 08:51 42.51793 4.37167 37038 ft 499 kts 210°
2026-04-14 08:51 42.45681 4.32619 37027 ft 501 kts 210°
2026-04-14 08:52 42.39601 4.28100 37008 ft 501 kts 210°
2026-04-14 08:52 42.33481 4.23565 37023 ft 501 kts 210°
2026-04-14 08:53 42.27364 4.19039 37032 ft 499 kts 211°
2026-04-14 08:53 42.21307 4.14568 37026 ft 498 kts 210°
2026-04-14 08:54 42.15220 4.10083 37029 ft 500 kts 211°
2026-04-14 08:54 42.09067 4.05565 37036 ft 503 kts 211°
2026-04-14 08:55 42.02925 4.01064 37049 ft 505 kts 211°
2026-04-14 08:55 41.96751 3.96547 37042 ft 505 kts 210°
2026-04-14 08:56 41.90306 3.92814 37066 ft 505 kts 195°
2026-04-14 08:56 41.83402 3.91123 37048 ft 504 kts 189°
2026-04-14 08:57 41.76466 3.89668 37054 ft 503 kts 189°
2026-04-14 08:57 41.69600 3.88118 37057 ft 502 kts 190°
2026-04-14 08:58 41.62711 3.86523 37055 ft 501 kts 190°
2026-04-14 08:58 41.55857 3.84949 37057 ft 502 kts 190°
2026-04-14 08:59 41.48977 3.83373 37065 ft 501 kts 190°
2026-04-14 08:59 41.42100 3.81799 37063 ft 500 kts 190°
2026-04-14 09:00 41.35235 3.80231 37050 ft 500 kts 190°
2026-04-14 09:00 41.28392 3.78671 37066 ft 500 kts 190°
2026-04-14 09:01 41.21563 3.77117 37078 ft 501 kts 190°
2026-04-14 09:01 41.14706 3.75409 37058 ft 501 kts 197°
2026-04-14 09:02 41.08183 3.72214 37081 ft 499 kts 203°
2026-04-14 09:02 41.01736 3.68767 37084 ft 500 kts 203°
2026-04-14 09:03 40.95283 3.65385 37071 ft 500 kts 203°
2026-04-14 09:03 40.88786 3.62045 37075 ft 499 kts 202°
2026-04-14 09:04 40.82308 3.58735 37082 ft 498 kts 202°
2026-04-14 09:04 40.75829 3.55429 37065 ft 498 kts 202°
2026-04-14 09:05 40.69414 3.52159 37075 ft 498 kts 202°
2026-04-14 09:05 40.62934 3.48861 37082 ft 498 kts 202°
2026-04-14 09:06 40.56472 3.45580 37077 ft 498 kts 202°
2026-04-14 09:06 40.49996 3.42298 37068 ft 498 kts 202°
2026-04-14 09:07 40.43570 3.39047 37080 ft 498 kts 203°
2026-04-14 09:07 40.37156 3.35609 37068 ft 497 kts 205°
2026-04-14 09:08 40.30769 3.32076 37071 ft 497 kts 205°
2026-04-14 09:08 40.24414 3.28590 37078 ft 497 kts 204°
2026-04-14 09:09 40.18008 3.25108 37079 ft 498 kts 204°
2026-04-14 09:09 40.11592 3.21634 37071 ft 498 kts 204°
2026-04-14 09:10 40.05185 3.18170 37067 ft 498 kts 204°
2026-04-14 09:10 39.98821 3.14733 37080 ft 498 kts 204°
2026-04-14 09:11 39.92409 3.11266 37070 ft 498 kts 206°
2026-04-14 09:11 39.86280 3.07091 37070 ft 496 kts 212°
2026-04-14 09:12 39.80320 3.02535 37058 ft 497 kts 213°
2026-04-14 09:12 39.74343 2.98072 37077 ft 498 kts 212°
2026-04-14 09:13 39.68281 2.93667 37072 ft 500 kts 211°
2026-04-14 09:13 39.62172 2.89263 37072 ft 501 kts 211°
2026-04-14 09:14 39.56072 2.84866 36988 ft 503 kts 211°
2026-04-14 09:14 39.53039 2.82678 36381 ft 505 kts 212°
2026-04-14 09:14 39.49972 2.80470 35550 ft 505 kts 212°
2026-04-14 09:15 39.46890 2.78253 34733 ft 505 kts 212°
2026-04-14 09:15 39.43874 2.75935 33760 ft 503 kts 220°
2026-04-14 09:15 39.41394 2.72827 32780 ft 493 kts 235°
2026-04-14 09:15 39.39253 2.69366 31804 ft 492 kts 236°
2026-04-14 09:16 39.37138 2.65896 30775 ft 492 kts 236°
2026-04-14 09:16 39.35005 2.62410 29672 ft 494 kts 236°
2026-04-14 09:16 39.32859 2.58939 28421 ft 494 kts 235°
2026-04-14 09:16 39.30698 2.55482 27184 ft 494 kts 234°
2026-04-14 09:17 39.28550 2.52073 25920 ft 495 kts 234°
2026-04-14 09:17 39.26384 2.48656 25057 ft 488 kts 234°
2026-04-14 09:17 39.24243 2.45288 24135 ft 482 kts 234°
2026-04-14 09:17 39.22132 2.41968 23115 ft 476 kts 234°
2026-04-14 09:18 39.20036 2.38673 22107 ft 470 kts 234°
2026-04-14 09:18 39.17980 2.35443 21182 ft 463 kts 234°
2026-04-14 09:18 39.15948 2.32250 20257 ft 457 kts 234°
2026-04-14 09:18 39.13947 2.29109 19355 ft 451 kts 234°
2026-04-14 09:19 39.11962 2.25994 18461 ft 446 kts 234°
2026-04-14 09:19 39.10026 2.22958 17450 ft 442 kts 234°
2026-04-14 09:19 39.08080 2.19912 16507 ft 436 kts 234°
2026-04-14 09:19 39.06166 2.16917 15562 ft 431 kts 234°
2026-04-14 09:20 39.04265 2.13946 14606 ft 427 kts 234°
2026-04-14 09:20 39.02390 2.11018 13918 ft 417 kts 234°
2026-04-14 09:20 39.00581 2.08201 13640 ft 397 kts 234°
2026-04-14 09:20 38.98869 2.05537 13497 ft 376 kts 234°
2026-04-14 09:21 38.97262 2.03036 13370 ft 358 kts 234°
2026-04-14 09:21 38.95712 2.00621 13250 ft 341 kts 234°
2026-04-14 09:21 38.94239 1.98327 13142 ft 326 kts 234°
2026-04-14 09:21 38.92824 1.96128 13036 ft 311 kts 234°
2026-04-14 09:22 38.91467 1.94025 12946 ft 298 kts 234°
2026-04-14 09:22 38.90291 1.91962 12841 ft 281 kts 247°
2026-04-14 09:22 38.89471 1.89734 12490 ft 277 kts 251°
2026-04-14 09:22 38.88673 1.87485 12170 ft 275 kts 251°
2026-04-14 09:23 38.87867 1.85274 11859 ft 272 kts 250°
2026-04-14 09:23 38.87056 1.83089 11546 ft 270 kts 250°
2026-04-14 09:23 38.86266 1.80930 11373 ft 260 kts 255°
2026-04-14 09:23 38.86051 1.78745 11253 ft 238 kts 285°
2026-04-14 09:24 38.86612 1.76837 11028 ft 225 kts 306°
2026-04-14 09:24 38.87590 1.75356 10775 ft 218 kts 324°
2026-04-14 09:24 38.88872 1.74344 10447 ft 218 kts 333°
2026-04-14 09:24 38.90267 1.73552 10027 ft 222 kts 349°
2026-04-14 09:25 38.91841 1.73698 9349 ft 234 kts 18°
2026-04-14 09:25 38.93220 1.74868 8703 ft 245 kts 45°
2026-04-14 09:25 38.93876 1.76074 8293 ft 251 kts 57°
2026-04-14 09:25 38.94701 1.78074 7666 ft 256 kts 59°
2026-04-14 09:26 38.95789 1.80808 6845 ft 261 kts 60°
2026-04-14 09:26 38.96342 1.82186 6443 ft 263 kts 60°
2026-04-14 09:26 38.97290 1.84192 5763 ft 262 kts 43°
2026-04-14 09:26 38.98808 1.85407 5132 ft 256 kts 12°
2026-04-14 09:27 39.00557 1.85519 4504 ft 251 kts 346°
2026-04-14 09:27 39.02184 1.84756 3876 ft 249 kts 332°
2026-04-14 09:27 39.03584 1.83487 3308 ft 248 kts 309°
2026-04-14 09:27 39.04337 1.81576 3122 ft 240 kts 285°
2026-04-14 09:28 39.04433 1.79476 3019 ft 232 kts 264°
2026-04-14 09:28 39.03928 1.77565 2996 ft 221 kts 246°
2026-04-14 09:28 39.03242 1.75841 2986 ft 214 kts 246°
2026-04-14 09:28 39.02557 1.74156 2994 ft 207 kts 245°
2026-04-14 09:29 39.01906 1.72609 2988 ft 190 kts 245°
2026-04-14 09:29 39.01297 1.71158 2983 ft 182 kts 246°
2026-04-14 09:29 39.00706 1.69747 2992 ft 174 kts 246°
2026-04-14 09:29 39.00153 1.68428 2992 ft 161 kts 246°
2026-04-14 09:30 38.99629 1.67194 3026 ft 155 kts 246°
2026-04-14 09:30 38.99120 1.65968 3018 ft 158 kts 247°
2026-04-14 09:30 38.98613 1.64725 3001 ft 156 kts 247°
2026-04-14 09:30 38.98105 1.63487 3002 ft 156 kts 247°
2026-04-14 09:31 38.97597 1.62256 3008 ft 157 kts 246°
2026-04-14 09:31 38.97090 1.61034 2995 ft 157 kts 246°
2026-04-14 09:31 38.96574 1.59789 2996 ft 157 kts 247°
2026-04-14 09:31 38.96062 1.58552 3003 ft 156 kts 247°
2026-04-14 09:32 38.95553 1.57325 3002 ft 156 kts 247°
2026-04-14 09:32 38.95044 1.56095 2993 ft 156 kts 246°
2026-04-14 09:32 38.94003 1.53582 2655 ft 155 kts 246°
2026-04-14 09:33 38.93519 1.52417 2470 ft 147 kts 247°
2026-04-14 09:33 38.93030 1.51232 2262 ft 151 kts 248°
2026-04-14 09:33 38.92540 1.50047 2049 ft 148 kts 247°
2026-04-14 09:33 38.92057 1.48881 1860 ft 147 kts 248°
2026-04-14 09:34 38.91562 1.47734 1641 ft 147 kts 247°
2026-04-14 09:34 38.91085 1.46583 1438 ft 150 kts 249°
2026-04-14 09:34 38.90614 1.45375 1324 ft 150 kts 249°
2026-04-14 09:34 38.90133 1.44204 1145 ft 147 kts 247°
2026-04-14 09:35 38.89645 1.43052 888 ft 147 kts 247°
2026-04-14 09:35 38.89169 1.41887 659 ft 148 kts 248°
2026-04-14 09:35 38.88686 1.40704 469 ft 149 kts 243°
2026-04-14 09:35 38.88211 1.39565 218 ft 140 kts 247°
2026-04-14 09:36 38.87778 1.38492 19 ft 129 kts 242°
2026-04-14 09:36 38.87471 1.37752 9 ft 62 kts 242°
2026-04-14 09:36 38.87281 1.37287 10 ft 55 kts 249°
2026-04-14 09:36 38.87259 1.37064 9 ft 10 kts 272°
2026-04-14 09:37 38.87263 1.36972 8 ft 10 kts 272°
2026-04-14 09:37 38.87278 1.36888 8 ft 10 kts 313°
2026-04-14 09:37 38.87335 1.36841 8 ft 10 kts 333°
2026-04-14 09:37 38.87385 1.36808 10 ft 0 kts 334°
2026-04-14 09:38 38.87388 1.36807 9 ft 4 kts 334°
2026-04-14 09:39 38.87444 1.36800 9 ft 7 kts 45°
2026-04-14 09:39 38.87453 1.36825 7 ft 0 kts 66°
2026-04-14 09:40 38.87453 1.36826 7 ft 2 kts 66°
2026-04-14 09:40 38.87482 1.36905 8 ft 11 kts 63°
2026-04-14 09:40 38.87517 1.36994 7 ft 11 kts 63°
2026-04-14 09:40 38.87530 1.37026 7 ft 0 kts 62°
2026-04-14 09:41 38.87561 1.37102 7 ft 19 kts 62°
2026-04-14 09:41 38.87612 1.37215 7 ft 4 kts 38°
2026-04-14 09:41 38.87640 1.37206 7 ft 5 kts 333°
2026-04-14 09:42 38.87663 1.37196 7 ft 1 kts 14°
2026-04-14 09:42 38.87673 1.37200 7 ft 0 kts 19°